Lid_Strength_Index
-0 -0 -0 -0 0 0 0 0 -0 0 1 1 1 1 1 6 11 11 10 10 2 1 1 1 1 1 1 1 1 2 1 1 0
0 -0 -1 -1 -1 -0 0 1 0 1 2 2 1 1 2 8 11 11 11 11 2 1 1 1 1 1 1 1 1 1 1 1 0
1 1 -0 -0 -0 0 0 1 1 2 2 2 2 3 4 9 11 11 11 5 2 1 1 1 1 1 1 1 1 1 1 1 1
1 1 0 0 1 1 1 1 1 2 2 2 2 3 4 11 11 10 10 3 2 2 2 1 1 1 1 1 1 1 1 1 0
2 2 1 1 2 2 2 2 2 3 3 3 3 4 5 10 10 10 10 3 2 2 2 2 1 1 1 1 1 1 1 1 1
7 3 3 2 3 2 2 2 3 3 4 4 4 5 10 10 9 9 3 2 2 1 2 2 2 2 1 1 1 1 1 0 -0
7 6 4 4 4 4 4 4 4 6 10 10 7 10 10 10 10 9 3 2 2 1 2 2 1 1 1 1 1 1 1 1 0
11 11 11 11 7 11 10 11 10 11 10 10 10 10 10 11 10 8 3 2 2 1 1 1 1 1 1 1 1 1 1 1 1
12 12 11 12 11 12 12 12 11 11 11 11 11 11 11 10 10 9 4 3 2 1 1 2 1 1 1 1 1 1 1 1 1
12 12 11 11 11 12 12 12 12 12 12 11 11 11 11 10 10 10 5 4 3 2 2 2 1 2 1 1 1 1 2 2 2
12 12 12 12 12 12 12 12 13 12 12 12 11 11 11 10 11 10 10 5 4 3 3 2 2 2 1 1 1 1 1 1 1
12 12 13 12 12 12 12 12 12 12 12 12 12 12 12 11 11 10 10 9 6 5 4 3 2 2 2 1 1 0 0 0 0
12 12 13 12 12 12 12 13 13 13 13 13 13 13 13 11 12 11 10 10 8 7 4 3 3 2 2 1 1 0 0 1 0
12 12 12 12 12 13 13 13 13 13 13 12 12 13 13 12 11 11 10 10 9 9 6 4 4 3 3 2 1 1 1 0 0
12 12 12 12 12 13 13 13 12 13 13 12 12 14 13 13 12 11 10 10 9 9 9 8 7 3 2 2 2 1 0 0 0
12 12 12 12 13 13 13 13 13 13 13 14 14 14 14 13 12 11 11 10 9 9 9 8 8 7 3 2 1 0 0 -0 -0
12 12 12 12 13 13 13 13 14 13 13 14 16 16 15 14 12 12 11 10 10 9 8 8 7 7 6 5 1 0 -1 -2 -1
12 12 12 13 13 13 13 13 13 14 13 13 14 17 17 16 14 12 11 11 10 9 9 8 7 7 6 5 3 1 -2 -2 -3
12 12 12 13 13 13 13 11 13 14 14 13 12 14 14 16 16 13 12 10 10 9 9 8 7 7 6 4 3 1 0 -1 -2
12 12 13 13 13 13 13 13 13 13 13 14 14 14 14 15 16 16 12 11 9 8 8 8 8 7 6 5 3 0 1 0 -1